Temperature
17 16 16 17 16 16 16 17 17 17 17 17 17 16 16 16 16 16 16 16 16 16 16 16 16 16 16 16 16 16 16 16 16 16 17 17 17 17 17 16 17 17 17
18 17 17 17 17 17 17 17 17 17 17 17 17 16 16 15 15 15 16 16 17 17 16 16 16 16 16 16 16 16 16 16 16 16 17 18 18 17 17 17 16 16 17
18 18 18 17 17 17 17 17 17 17 17 17 16 15 15 16 15 15 15 16 16 17 17 16 16 16 16 16 16 15 15 16 16 16 16 18 19 19 18 16 16 16 16
18 18 18 17 17 17 16 16 16 16 16 16 15 15 15 15 14 14 14 14 15 16 16 16 16 16 16 16 16 15 15 15 16 16 15 16 17 17 19 17 16 16 16
18 18 17 17 17 16 16 16 16 16 16 16 15 15 15 15 15 14 14 14 14 14 15 15 16 16 16 16 16 15 15 15 15 16 16 15 15 15 16 18 17 16 16
18 18 17 17 16 16 16 15 15 15 14 14 14 14 14 14 14 14 14 14 14 14 14 14 15 15 15 15 15 15 15 15 15 15 16 16 16 16 16 17 17 17 17
18 18 17 17 16 16 15 15 14 13 13 13 13 13 13 13 13 13 13 13 14 14 13 13 14 14 14 15 15 15 15 15 15 15 15 15 16 16 16 17 17 17 16
18 18 17 16 16 15 15 14 13 13 13 13 12 12 12 12 13 13 13 13 13 13 13 13 13 13 13 14 14 14 14 14 14 14 14 15 15 15 16 16 16 17 17
18 17 17 16 15 15 14 13 13 12 12 12 12 12 12 11 12 11 11 12 12 12 12 12 12 13 13 13 13 13 13 14 14 14 14 14 14 15 15 15 16 16 18
18 17 16 16 15 14 14 13 12 12 11 11 11 11 11 11 11 11 11 11 11 11 11 11 12 12 12 12 13 12 12 13 13 13 13 13 14 14 14 15 15 15 16
17 17 16 15 14 14 13 13 12 11 11 10 10 10 10 10 10 10 10 10 10 10 10 11 11 11 11 11 12 12 12 12 12 12 12 12 13 13 13 14 14 14 15
16 16 15 14 14 13 12 12 11 10 10 9 9 9 8 9 9 9 9 9 9 9 10 10 10 11 11 11 11 11 12 12 12 11 11 12 12 12 13 13 13 14 14
16 15 14 14 13 12 11 11 10 9 9 8 8 8 8 8 8 8 8 8 8 8 9 9 10 10 11 11 11 11 11 11 11 11 11 11 11 11 12 12 13 13 13
15 14 13 13 12 11 10 10 9 8 8 7 7 7 7 7 7 7 7 7 7 7 8 8 9 9 10 10 10 11 11 11 11 11 11 11 11 11 11 11 12 12 13
15 14 13 12 11 10 9 9 8 7 7 6 6 6 6 6 6 6 6 6 6 6 7 7 8 8 9 10 10 10 10 10 10 10 10 10 10 11 10 11 11 12 12
14 13 12 11 10 10 9 8 7 7 6 6 6 6 6 6 6 6 5 5 5 5 5 6 6 7 8 10 10 10 10 10 10 10 10 10 10 10 10 10 10 11 11
13 12 11 11 10 9 8 7 7 6 6 6 6 6 5 5 5 5 5 5 5 5 5 5 5 6 7 8 9 10 10 10 10 10 10 10 10 10 9 10 10 10 10
12 11 11 10 10 9 8 7 7 6 6 6 6 5 5 5 5 5 4 4 4 4 4 4 5 5 6 7 8 9 9 9 10 10 10 10 10 9 9 9 9 10 10
11 11 10 10 9 8 7 7 6 6 6 6 6 5 5 5 5 4 4 4 4 4 4 4 4 5 5 7 8 9 9 9 9 10 10 10 10 10 9 9 9 10 10
11 10 10 9 9 8 7 6 6 6 6 6 5 5 5 5 4 4 4 4 4 4 4 4 4 4 5 6 7 8 8 9 9 9 10 10 10 10 10 10 9 10 10
10 10 9 9 8 7 6 6 6 6 6 5 5 5 5 5 5 5 4 4 4 4 4 4 4 4 5 6 7 8 8 9 9 10 10 10 10 10 10 10 10 10 10
10 10 9 9 8 7 6 6 6 6 5 5 5 5 5 5 5 5 5 4 4 4 4 4 4 4 5 5 6 7 8 8 9 10 10 10 10 10 10 10 10 10 10
10 9 9 8 8 7 7 6 6 5 5 5 5 5 5 5 5 5 5 5 4 4 4 4 4 5 5 5 6 6 7 8 8 9 9 9 9 9 9 10 10 10 10
9 9 8 8 8 7 7 6 6 6 5 5 5 5 5 5 5 5 5 5 5 4 4 4 4 5 5 5 5 6 7 7 8 8 8 9 9 9 9 9 9 9 10
9 8 8 7 7 7 7 6 6 6 5 5 5 5 5 6 6 6 6 5 5 4 4 4 4 5 5 5 5 6 6 7 7 8 8 8 8 8 9 9 9 9 9
9 8 7 7 7 7 7 6 6 6 6 5 5 5 6 6 6 6 6 6 5 5 5 5 5 4 4 5 5 5 6 6 7 7 8 8 8 9 9 9 9 9 9
Wind_Speed
8 7 7 8 8 8 9 9 9 9 9 8 8 8 7 7 6 5 6 7 7 7 7 7 6 7 7 8 8 7 9 9 7 8 8 9 11 11 10 10 10 11 11
9 8 8 8 9 9 9 9 10 10 9 8 7 6 7 7 6 6 6 8 8 7 7 7 7 7 7 8 8 8 8 8 7 7 7 8 8 9 11 10 11 11 10
8 8 8 9 9 9 10 9 9 9 9 8 7 7 6 6 6 7 6 8 8 8 7 7 8 8 9 8 9 10 11 9 8 8 8 7 6 3 6 8 8 9 8
5 6 7 9 10 10 10 10 10 10 9 9 9 10 8 9 8 7 7 8 7 8 7 7 7 8 8 9 10 11 10 10 10 8 9 9 6 5 3 6 8 9 9
4 6 8 10 11 12 12 12 12 12 11 10 10 10 12 10 9 8 8 8 7 6 6 6 6 6 7 8 10 10 11 10 11 9 8 9 8 9 7 5 6 8 9
6 8 10 12 13 13 14 14 14 14 14 13 13 12 13 13 13 11 10 9 7 6 4 5 5 5 5 7 8 10 12 12 11 10 9 8 8 8 8 8 7 7 7
8 10 13 14 15 15 14 14 14 15 15 15 15 14 14 15 14 14 12 10 10 8 5 5 5 5 5 6 7 8 10 11 12 12 10 10 10 8 7 8 7 6 5
10 12 14 15 15 14 13 14 15 16 17 17 16 15 15 14 14 14 14 13 12 11 9 8 7 7 7 6 6 7 9 9 10 12 12 10 10 9 9 8 7 7 7
11 13 14 15 14 14 15 16 17 18 18 18 18 17 16 15 16 16 15 15 13 12 12 12 11 10 9 8 7 7 7 7 8 10 11 12 11 10 10 9 9 8 7
13 15 15 15 15 16 17 18 18 18 18 19 17 16 17 17 16 16 16 16 16 15 14 14 14 13 12 11 10 8 7 7 7 6 8 10 11 10 10 10 10 9 8
16 16 16 16 16 17 18 18 18 19 19 19 18 18 18 18 18 17 17 16 16 16 16 15 15 15 15 14 12 12 10 10 8 7 6 7 8 9 10 10 11 10 9
17 17 18 17 18 19 19 19 19 20 19 19 18 18 18 18 18 19 18 17 17 17 17 17 17 17 17 17 16 15 13 12 11 10 8 7 6 8 8 9 12 11 10
18 18 17 17 18 19 19 19 20 19 19 18 18 19 19 19 19 18 18 18 18 18 18 18 18 18 18 18 18 17 16 14 13 12 12 10 8 8 6 8 11 10 11
17 17 17 17 18 18 18 19 19 18 18 18 18 18 18 18 19 19 18 18 18 18 19 19 19 19 18 18 19 19 18 16 15 14 13 13 12 10 7 5 8 10 11
17 18 18 18 18 18 18 18 18 17 17 18 18 19 19 19 19 19 18 18 18 18 18 19 19 19 18 17 18 18 19 17 16 15 15 15 15 15 11 7 4 5 7
18 19 19 19 18 18 17 17 17 17 17 18 18 19 19 19 19 19 19 19 18 18 18 18 18 18 17 15 14 16 18 17 17 15 15 14 16 18 17 14 10 6 7
18 19 19 18 17 17 16 17 16 17 17 17 18 18 19 19 20 20 20 19 19 18 18 17 17 17 17 14 13 15 17 17 16 15 12 12 14 17 16 15 14 11 11
18 18 18 17 16 16 16 15 16 16 17 17 18 18 18 20 20 20 20 19 17 16 16 16 16 16 16 14 14 15 17 17 16 14 13 13 11 15 15 14 14 12 11
17 16 16 17 16 15 15 16 16 16 17 17 18 18 19 20 20 19 19 17 16 16 15 15 15 15 15 13 13 14 14 15 16 14 14 13 12 13 13 13 12 12 11
15 16 16 16 15 15 15 16 16 17 17 17 18 19 19 19 19 19 18 15 14 14 14 14 13 13 14 11 13 15 12 13 13 12 11 11 10 13 15 12 11 11 10
16 15 15 15 14 14 14 16 17 17 17 17 18 19 18 18 18 17 15 14 12 12 12 13 12 11 10 8 10 12 10 11 12 12 12 11 14 12 13 10 9 8 7
16 16 14 15 14 14 14 16 17 17 17 17 18 18 18 17 15 16 15 13 11 11 10 10 10 8 6 6 8 8 5 4 8 8 8 8 16 13 12 10 8 5 6
16 15 15 15 15 14 13 15 17 16 16 17 18 18 18 16 15 14 14 12 10 8 8 7 7 6 5 6 9 9 6 5 6 5 4 8 11 10 10 11 9 8 9
16 15 15 16 16 15 14 14 15 15 15 16 17 16 16 15 14 12 10 9 9 8 7 6 5 4 4 6 8 9 9 9 9 8 6 9 8 8 8 9 10 10 9
15 15 14 15 16 16 15 15 14 14 15 15 15 15 15 14 13 12 9 9 8 6 8 7 6 4 4 3 3 6 9 10 10 10 9 9 9 10 11 11 11 10 9
16 15 16 16 17 16 16 15 14 14 14 13 13 12 12 12 12 11 10 5 5 4 5 7 8 5 1 2 1 2 3 2 0 6 10 10 11 11 12 12 11 9 9
Wind_Direction
67 61 57 54 57 50 44 36 28 23 13 11 1 354 346 336 337 334 333 317 298 276 258 257 245 243 241 240 238 237 237 240 244 251 253 247 241 237 237 237 243 236 233
73 65 60 56 48 42 33 29 25 20 14 13 357 349 338 331 340 343 349 344 332 312 279 258 249 240 246 242 244 240 253 246 230 246 258 254 236 222 232 234 233 240 235
65 56 44 37 30 22 14 11 6 3 5 354 348 349 340 332 346 349 350 351 343 335 320 294 269 254 248 244 239 238 241 250 241 233 247 257 254 235 200 219 224 220 222
48 28 15 9 3 357 352 351 346 345 342 333 338 340 334 333 335 330 340 337 339 340 339 322 298 272 252 247 243 235 240 246 250 232 233 253 290 276 229 198 203 207 216
360 351 347 345 342 339 337 335 335 331 328 322 313 307 310 315 312 314 316 316 321 326 335 335 323 300 278 259 249 248 238 238 245 246 229 225 226 237 262 247 203 203 212
317 323 327 328 327 327 327 328 329 327 324 316 308 299 298 297 298 296 299 297 300 297 304 315 317 309 299 284 265 254 241 239 243 250 244 231 227 223 227 240 237 228 220
306 316 322 324 321 321 324 326 329 329 326 320 313 305 298 292 285 283 286 284 286 283 277 279 280 287 285 281 275 263 257 245 238 236 242 242 241 242 230 234 237 238 233
311 319 323 322 319 319 322 326 327 324 322 319 317 311 302 294 291 290 288 284 280 278 276 260 252 254 259 264 265 263 256 253 245 240 242 246 242 237 231 230 231 230 221
313 316 321 322 319 316 318 321 321 320 320 318 315 307 306 302 298 295 283 279 276 274 264 254 249 244 240 240 246 252 253 250 245 244 242 244 245 237 231 227 228 236 229
311 317 321 322 321 318 318 317 318 318 318 316 317 315 314 309 303 297 293 288 285 278 272 262 254 248 241 231 228 236 238 241 240 242 250 247 251 245 232 225 223 229 244
318 319 319 321 321 319 319 320 319 318 316 315 315 313 310 308 305 299 293 288 282 279 273 266 261 254 246 237 228 231 222 226 233 233 238 248 260 260 246 230 223 219 225
318 319 320 321 320 320 320 319 318 315 314 315 312 309 307 305 302 299 299 295 288 280 272 268 264 259 251 241 233 231 226 220 222 224 226 233 248 259 263 251 234 222 216
320 320 319 320 319 319 317 316 315 314 315 314 311 309 307 305 303 302 299 296 291 283 276 269 263 258 254 247 237 234 230 225 224 219 219 221 216 234 244 260 251 234 218
319 319 319 318 318 316 315 314 313 315 315 314 312 309 308 307 305 302 299 295 291 287 279 271 264 258 252 247 241 234 231 229 226 221 217 215 210 213 216 241 261 251 230
321 320 320 319 318 317 316 315 315 315 315 313 310 309 310 308 306 303 301 298 294 289 284 277 267 258 251 245 239 234 230 227 227 224 221 217 210 204 203 205 237 273 253
321 321 320 320 319 319 317 317 314 314 313 310 309 310 310 308 307 305 301 297 294 291 287 280 273 263 252 240 229 232 233 229 227 226 224 221 208 203 198 198 203 232 270
321 320 319 319 319 318 318 315 314 312 310 308 308 308 309 308 306 305 303 299 297 293 288 283 275 266 260 250 227 226 235 231 225 222 220 223 209 196 199 198 200 215 241
318 317 317 318 317 319 319 316 312 309 308 307 310 312 312 309 307 305 301 298 295 291 287 284 278 271 262 245 224 216 230 232 223 215 211 216 207 195 194 192 195 204 216
316 314 314 315 316 317 320 316 310 309 309 310 314 314 312 310 307 304 300 299 295 289 285 282 279 274 266 243 218 209 225 223 219 212 207 205 201 180 183 197 200 204 212
317 315 314 313 315 321 320 313 310 310 309 313 313 313 311 309 307 305 302 299 293 287 284 280 276 273 267 241 210 205 220 214 209 208 206 204 206 169 179 204 206 211 215
316 314 312 312 318 320 317 310 308 307 309 312 310 311 311 310 308 308 305 302 296 289 284 280 275 270 261 221 194 201 219 206 207 200 200 195 169 171 188 216 224 222 224
318 317 314 314 318 319 316 310 308 309 310 308 309 311 313 314 313 312 309 306 302 294 287 281 275 261 241 204 178 188 214 262 215 206 203 158 153 173 192 213 223 214 225
319 317 314 314 317 321 319 311 310 311 308 306 307 310 312 313 311 312 313 311 306 297 292 285 278 255 222 184 169 180 190 221 236 222 76 103 143 174 204 219 212 211 225
319 318 317 315 317 320 318 312 310 310 306 304 306 308 310 311 313 313 314 315 315 311 304 297 284 254 224 200 188 192 194 203 222 232 192 170 180 223 243 203 202 218 226
319 318 316 314 314 317 316 315 314 312 307 304 303 305 308 311 311 312 314 314 316 315 305 307 307 280 243 201 171 203 204 211 214 217 217 218 212 213 215 217 215 215 217
319 318 318 317 316 316 315 318 320 317 310 306 304 303 306 309 311 315 317 291 269 296 287 281 285 289 310 75 161 250 290 311 135 222 224 221 222 221 216 214 211 210 213
Height
1529 1528 1527 1527 1525 1523 1521 1520 1518 1516 1514 1512 1511 1510 1509 1507 1506 1504 1502 1501 1501 1500 1499 1499 1499 1499 1500 1501 1502 1502 1503 1504 1505 1506 1506 1506 1505 1506 1507 1508 1510 1511 1513
1530 1530 1529 1528 1526 1524 1522 1520 1518 1516 1514 1512 1510 1509 1507 1506 1504 1502 1499 1498 1497 1497 1497 1496 1496 1496 1497 1497 1497 1499 1501 1502 1502 1503 1503 1503 1503 1501 1502 1503 1504 1506 1508
1531 1530 1529 1528 1526 1524 1522 1520 1518 1516 1513 1511 1510 1508 1507 1505 1503 1500 1497 1495 1493 1493 1492 1492 1492 1492 1493 1494 1494 1496 1497 1499 1499 1499 1501 1500 1498 1498 1499 1499 1500 1501 1503
1531 1530 1529 1527 1526 1524 1521 1519 1516 1514 1512 1510 1508 1507 1505 1503 1500 1498 1495 1492 1490 1488 1487 1487 1487 1488 1489 1490 1490 1492 1494 1494 1496 1496 1496 1497 1497 1497 1496 1497 1497 1498 1500
1530 1529 1528 1526 1524 1522 1520 1517 1514 1512 1509 1507 1505 1503 1502 1500 1498 1495 1493 1490 1488 1485 1484 1483 1483 1483 1483 1484 1486 1487 1488 1490 1491 1493 1493 1493 1493 1495 1495 1494 1495 1496 1497
1529 1528 1526 1525 1522 1520 1518 1515 1512 1509 1506 1504 1502 1499 1497 1495 1493 1491 1489 1488 1486 1483 1481 1480 1479 1478 1478 1478 1479 1481 1482 1484 1486 1488 1489 1490 1490 1491 1492 1492 1493 1493 1494
1527 1526 1525 1523 1520 1517 1515 1512 1508 1505 1503 1500 1498 1495 1492 1490 1488 1486 1485 1483 1482 1481 1478 1476 1475 1474 1474 1473 1473 1474 1475 1477 1479 1481 1483 1485 1487 1488 1488 1489 1490 1490 1491
1525 1524 1523 1520 1517 1514 1511 1508 1505 1502 1499 1496 1493 1490 1487 1485 1484 1482 1480 1478 1477 1476 1474 1472 1471 1470 1469 1469 1468 1468 1469 1470 1472 1474 1477 1480 1482 1483 1484 1485 1487 1487 1487
1524 1522 1520 1517 1514 1511 1508 1505 1501 1498 1494 1491 1487 1485 1482 1480 1477 1475 1473 1472 1471 1469 1468 1466 1465 1465 1464 1464 1463 1463 1463 1463 1464 1467 1470 1473 1476 1478 1479 1481 1482 1484 1483
1521 1519 1517 1514 1511 1508 1505 1501 1497 1493 1489 1485 1482 1479 1476 1473 1471 1469 1467 1465 1463 1462 1461 1460 1459 1459 1458 1458 1458 1457 1457 1457 1458 1460 1462 1465 1469 1472 1474 1476 1477 1479 1480
1518 1516 1513 1510 1507 1503 1499 1496 1492 1487 1483 1479 1475 1471 1468 1465 1463 1461 1459 1457 1455 1454 1453 1452 1452 1452 1452 1452 1451 1452 1451 1452 1452 1453 1455 1457 1461 1464 1467 1470 1472 1474 1475
1515 1512 1509 1505 1502 1498 1494 1490 1486 1482 1477 1473 1469 1465 1461 1458 1455 1453 1450 1448 1446 1445 1444 1444 1443 1443 1444 1444 1444 1445 1445 1446 1447 1447 1449 1450 1452 1455 1458 1463 1467 1469 1470
1511 1508 1505 1501 1498 1494 1490 1485 1481 1476 1471 1467 1462 1458 1454 1451 1447 1444 1442 1439 1437 1435 1434 1434 1434 1434 1434 1435 1436 1437 1438 1439 1440 1441 1443 1444 1445 1447 1450 1455 1460 1464 1466
1508 1505 1501 1498 1494 1490 1485 1480 1475 1470 1465 1461 1456 1451 1447 1444 1440 1437 1433 1431 1428 1426 1424 1423 1423 1423 1424 1425 1427 1429 1430 1432 1433 1434 1436 1437 1438 1440 1443 1447 1452 1457 1461
1504 1501 1498 1494 1489 1485 1480 1475 1470 1465 1460 1455 1450 1446 1441 1437 1433 1429 1426 1422 1419 1417 1414 1413 1412 1412 1414 1415 1417 1419 1422 1424 1426 1427 1428 1429 1430 1432 1436 1439 1444 1448 1453
1501 1497 1493 1489 1485 1480 1475 1470 1464 1460 1455 1450 1446 1441 1436 1431 1427 1423 1418 1415 1411 1408 1405 1403 1402 1402 1403 1405 1407 1410 1414 1416 1418 1421 1422 1424 1424 1426 1429 1433 1437 1441 1445
1498 1494 1489 1485 1481 1476 1471 1465 1460 1456 1451 1446 1441 1436 1431 1426 1421 1416 1411 1407 1403 1399 1396 1394 1392 1392 1393 1395 1398 1401 1405 1408 1411 1414 1416 1419 1420 1421 1423 1427 1430 1435 1438
1495 1490 1486 1481 1477 1472 1467 1461 1456 1452 1447 1442 1437 1432 1426 1420 1414 1409 1404 1399 1395 1391 1388 1385 1384 1383 1383 1386 1389 1393 1396 1401 1404 1408 1411 1414 1416 1418 1420 1423 1425 1429 1433
1492 1487 1483 1478 1473 1468 1462 1457 1452 1448 1443 1438 1432 1426 1420 1414 1407 1402 1396 1391 1387 1383 1380 1378 1376 1375 1375 1377 1380 1384 1388 1393 1398 1403 1406 1409 1412 1415 1417 1420 1422 1425 1428
1488 1483 1478 1473 1468 1463 1458 1452 1447 1443 1438 1433 1427 1421 1414 1408 1402 1396 1390 1385 1380 1376 1373 1371 1369 1368 1368 1369 1373 1377 1382 1387 1393 1397 1401 1405 1409 1412 1414 1417 1419 1421 1423
1483 1478 1474 1469 1464 1458 1453 1447 1442 1438 1433 1427 1421 1415 1409 1403 1396 1390 1385 1379 1375 1370 1367 1365 1363 1362 1362 1364 1367 1371 1377 1383 1388 1392 1397 1401 1403 1407 1410 1413 1416 1417 1420
1478 1474 1469 1464 1459 1454 1448 1443 1437 1433 1427 1421 1416 1410 1405 1398 1393 1386 1381 1376 1371 1366 1363 1360 1358 1358 1358 1360 1363 1368 1373 1379 1384 1389 1393 1396 1398 1402 1405 1408 1411 1413 1415
1474 1469 1465 1460 1455 1450 1445 1438 1433 1427 1421 1416 1411 1406 1400 1394 1388 1383 1377 1372 1368 1364 1360 1358 1356 1355 1356 1358 1361 1365 1370 1375 1380 1385 1388 1391 1394 1397 1400 1403 1406 1409 1410
1470 1466 1461 1456 1451 1446 1440 1435 1428 1422 1417 1411 1406 1401 1396 1390 1385 1380 1375 1370 1365 1361 1358 1356 1354 1354 1355 1356 1359 1363 1367 1371 1376 1380 1383 1386 1389 1392 1396 1398 1400 1403 1405
1467 1462 1457 1452 1447 1441 1436 1430 1424 1418 1412 1406 1401 1397 1392 1387 1382 1377 1372 1368 1363 1360 1357 1355 1354 1353 1354 1355 1357 1360 1365 1369 1373 1377 1380 1383 1385 1387 1390 1393 1395 1397 1399
1463 1458 1453 1448 1442 1437 1432 1427 1421 1414 1408 1402 1397 1393 1389 1384 1380 1375 1370 1366 1362 1357 1355 1353 1352 1352 1352 1353 1355 1358 1361 1365 1368 1372 1375 1377 1380 1382 1384 1387 1389 1391 1392